Flag for U.S.A. Weather past 2 weeks in Amarillo, Texas, U.S.A.

Now
92 °F

Sunny.


Feels Like: 92 °F
Forecast: 68 / 86 °F
Wind: 12 mph from Southeast

Location: Amarillo International Airport

Current Time: Jul 28, 2015 at 7:38:50 PM

Latest Report: Jul 28, 2015 at 6:53 PM


Visibility: 10 mi

Pressure: 29.78 "Hg (26.30 "Hg at 1117m altitude)

Humidity: 37%

Dew point: 62 °F

Location of AmarilloLocation

Historic Weather in Amarillo — Graph

°F

Amarillo temperature yesterday

Maximum temperature yesterday: 95 °F (at 3:53 PM)
Minimum temperature yesterday: 71 °F (at 5:53 AM)
Average temperature yesterday: 83 °F

Past Weeks' High & Low Weather Summary

 TemperatureHumidityPressure
High95 °F (Jul 14, 5:53 PM)94% (Jul 21, 4:53 AM)30.15 "Hg (Jul 21, 4:53 AM)
Low65 °F (Jul 21, 4:53 AM)28% (Jul 15, 4:53 PM)29.71 "Hg (Jul 14, 6:53 PM)
Average81 °F57%29.83 "Hg
* Reported Jul 13 6:53 PM — Jul 28 5:53 PM, Amarillo, Weather by CustomWeather, © 2015

Note: Actual official high and low records may vary slightly from our data, if they occured in-between our weather recording intervals... More about our weather records

Advertising

Amarillo weather history for previous 24 hours

 ConditionsComfort  
Time TempWeatherWind HumidityBarometerVisibility
5:53 PM
Tue, Jul 28
92 °FMostly cloudy.9 mph37%29.79 "Hg10 mi
4:53 PM92 °FScattered clouds.8 mph37%29.80 "Hg10 mi
3:53 PM93 °FSunny.8 mph38%29.82 "Hg10 mi
2:53 PM93 °FSunny.8 mph40%29.83 "Hg10 mi
1:53 PM91 °FSunny.9 mph44%29.84 "Hg10 mi
12:53 PM90 °FSunny.8 mph45%29.83 "Hg10 mi
11:53 AM88 °FSunny.15 mph45%29.83 "Hg10 mi
10:53 AM86 °FSunny.15 mph46%29.83 "Hg10 mi
9:53 AM82 °FSunny.12 mph53%29.84 "Hg10 mi
8:53 AM77 °FSunny.9 mph62%29.84 "Hg10 mi
7:53 AM72 °FSunny.8 mph71%29.82 "Hg10 mi
6:53 AM72 °FClear.14 mph68%29.80 "Hg10 mi
5:53 AM73 °FClear.15 mph69%29.78 "Hg10 mi
4:53 AM73 °FClear.12 mph71%29.78 "Hg10 mi
3:53 AM74 °FClear.12 mph69%29.80 "Hg10 mi
2:53 AM78 °FClear.20 mph58%29.79 "Hg10 mi
1:53 AM79 °FClear.17 mph58%29.80 "Hg10 mi
12:53 AM81 °FClear.20 mph54%29.79 "Hg10 mi
11:53 PM
Mon, Jul 27
82 °FClear.17 mph49%29.79 "Hg10 mi
10:53 PM81 °FClear.14 mph51%29.78 "Hg10 mi
9:53 PM84 °FSunny.15 mph45%29.77 "Hg10 mi
8:53 PM87 °FSunny.14 mph40%29.75 "Hg10 mi
7:53 PM90 °FSunny.20 mph39%29.74 "Hg10 mi
Weather by CustomWeather, © 2015

See weather overviewHow to use our weather pages